Vorticity
10 13 19 18 14 15 16 10 3 6 9 4 5 12 11 9 13 12 4 -1 0 6 11 17 16 5 3 3 -2 -1 1 3 3 0 -1 -1 -2 1 6 9 8 8 7 6 11 19 19 13 12 15 10 8 9 7 6 7 7 9 9 8 8 8 8 8 8 7 7 7 7 7 7 7 7 7 6 5 5 5 5 4 4 4 4 4 3 4
7 10 18 19 17 18 17 14 10 6 8 7 4 8 12 11 14 14 9 2 -1 5 10 15 13 3 2 3 -3 0 2 1 3 2 -1 -2 -2 -1 1 8 13 11 7 6 10 16 19 14 11 14 12 8 8 7 6 7 8 8 8 8 7 7 7 8 7 7 7 7 7 7 7 7 7 7 6 6 5 4 4 3 3 3 4 4 3 4
6 4 8 12 14 18 17 15 14 10 9 9 4 5 13 15 12 11 10 5 -0 3 8 13 14 4 2 2 -1 2 -1 -3 1 2 2 1 -1 -1 -0 5 13 13 9 7 9 13 18 16 11 11 12 10 7 7 7 8 9 8 7 7 7 7 7 7 6 6 8 7 7 8 7 6 6 6 6 6 5 4 4 4 4 4 4 4 4 5
7 5 6 7 7 12 16 15 15 14 12 12 11 9 13 15 11 10 10 4 -1 0 4 13 18 6 -0 3 3 -1 -4 -3 -1 1 5 6 0 -0 3 4 9 13 10 8 9 12 14 14 12 11 11 10 7 6 5 6 7 7 6 6 7 7 6 6 6 7 8 7 7 8 8 7 6 6 6 5 4 4 4 4 4 4 4 4 4 5
5 5 5 5 5 6 10 12 13 13 11 11 13 11 10 11 11 12 10 5 0 -2 -1 7 17 10 0 5 5 -5 -5 -2 -2 3 6 5 3 1 3 2 3 11 12 9 9 11 14 13 12 12 10 8 7 5 6 7 7 8 8 7 8 8 7 7 6 6 6 6 7 7 8 8 6 6 6 4 4 4 3 4 4 3 3 4 4 5
5 4 3 4 6 7 6 9 11 12 12 11 10 8 6 7 11 12 8 6 3 -1 -0 1 11 21 9 3 5 -3 -3 -1 -2 7 6 2 5 1 1 2 2 9 11 9 10 10 13 12 10 11 10 7 6 4 5 7 8 8 9 8 8 8 7 7 6 5 6 6 6 5 7 8 8 8 7 5 5 4 3 4 3 3 3 4 5 6
7 4 4 4 5 6 6 8 10 11 13 14 12 7 4 5 8 12 9 5 2 1 4 -1 2 22 19 4 3 -1 -3 1 2 6 3 -0 4 2 1 2 2 6 11 11 10 10 11 10 10 10 10 8 7 6 6 7 7 7 7 8 8 8 8 7 6 6 6 5 5 4 6 7 8 10 8 5 4 4 5 3 2 5 5 4 5 6
11 9 8 9 8 6 6 9 10 9 12 18 19 10 6 8 6 10 11 6 3 1 3 3 -3 13 27 14 5 4 -1 3 7 5 1 1 4 4 1 2 2 4 9 12 9 10 11 10 11 10 9 9 7 7 6 5 5 6 7 8 7 7 8 7 6 7 6 5 5 4 4 5 7 9 9 8 5 5 6 3 2 5 5 4 4 5
7 8 10 10 8 7 7 9 9 9 10 16 23 16 8 7 6 9 11 8 5 -3 -1 7 -3 4 33 26 6 6 3 3 10 5 1 4 3 4 2 1 3 3 7 11 9 9 12 11 11 10 9 9 8 6 6 6 7 7 7 8 7 6 6 6 5 5 5 5 4 3 3 4 6 7 9 10 7 5 6 4 3 4 4 4 3 4
2 3 5 4 5 9 7 4 4 6 9 10 17 21 12 6 8 8 10 11 4 -8 -3 12 1 -2 29 34 8 5 7 7 13 8 3 5 1 3 5 2 4 6 5 8 9 8 10 13 13 11 9 8 8 7 7 8 9 6 5 5 5 5 5 6 6 5 5 5 4 3 2 4 6 7 7 8 8 6 5 4 4 4 5 4 3 3
5 2 -0 2 7 10 7 4 3 2 6 8 10 17 14 7 7 5 9 13 -0 -9 4 17 3 -13 13 33 12 2 12 14 12 8 5 6 4 3 3 2 4 6 3 5 9 8 7 12 14 14 11 8 8 8 6 5 6 5 5 5 6 6 7 7 8 8 8 7 7 5 4 4 6 7 7 6 7 7 5 4 4 4 5 5 3 2
4 3 0 4 7 5 4 7 9 5 5 9 9 12 11 9 7 3 6 6 -7 -2 20 24 4 -8 20 45 23 3 10 9 6 9 7 4 5 3 1 2 5 5 3 5 8 8 8 9 11 14 15 10 8 9 8 7 7 7 7 7 8 8 8 7 8 9 9 9 9 8 6 5 5 7 8 6 6 7 6 5 5 4 5 5 4 2
4 8 6 6 6 3 3 6 9 9 8 11 12 10 7 7 7 4 5 -1 -13 -1 24 28 7 -6 15 37 29 15 11 9 8 10 8 3 1 3 4 6 5 4 5 4 3 7 10 8 7 10 14 11 8 9 10 9 8 9 9 8 8 8 8 8 8 8 8 8 8 9 8 6 6 7 9 9 7 5 7 7 6 5 6 4 3 3
7 11 8 7 6 5 6 6 6 9 13 14 15 13 7 4 2 4 10 7 -0 3 17 27 11 -6 6 25 32 28 16 14 17 9 4 4 2 4 6 4 2 2 4 3 1 4 8 8 7 7 9 9 8 8 8 7 8 9 9 9 8 8 8 7 7 6 6 7 7 8 8 7 6 6 9 11 9 5 5 7 8 5 5 5 4 4
8 8 8 9 11 9 8 7 5 6 11 11 13 15 11 8 1 -1 5 7 6 6 10 20 14 1 10 18 19 21 13 14 23 13 3 4 4 3 3 0 0 2 3 3 3 3 4 5 6 5 7 9 9 8 7 6 6 7 8 9 9 9 9 7 5 5 6 7 6 6 7 7 7 8 9 10 11 8 5 6 9 7 5 5 4 4
7 6 8 8 8 9 6 7 6 4 6 6 9 12 11 13 10 2 2 2 2 4 4 12 12 2 4 5 1 7 7 9 20 15 2 3 5 -1 -2 -0 -0 1 3 3 4 5 4 4 5 4 5 7 7 7 6 6 6 6 7 8 7 7 6 5 5 5 5 4 4 5 5 5 5 7 8 10 11 11 7 6 8 8 5 5 6 6
7 9 11 8 7 9 5 5 6 5 6 6 7 10 9 14 14 6 6 6 5 8 7 10 12 6 9 14 14 18 14 9 17 17 5 5 5 -2 -1 3 1 2 3 1 2 5 5 5 5 4 4 6 7 5 4 4 4 5 5 6 6 5 5 5 6 6 6 5 4 4 3 3 4 4 5 7 9 10 9 8 8 8 6 5 6 6
5 7 10 9 9 10 8 5 4 4 5 4 4 7 6 8 12 9 8 10 10 10 13 16 16 16 19 17 13 18 20 16 16 18 13 8 3 1 5 5 2 3 2 1 4 7 7 6 6 5 4 4 5 4 4 4 4 4 4 4 4 4 5 5 5 6 7 8 7 6 4 3 4 4 4 4 6 7 8 9 8 8 7 5 4 5
7 6 5 8 9 8 7 5 4 3 3 3 2 2 2 2 6 8 5 8 9 4 7 12 11 19 25 18 11 13 16 16 15 16 16 12 3 2 8 8 4 3 1 4 8 8 7 7 8 9 7 6 7 5 4 5 5 6 4 3 4 4 4 6 6 7 8 9 10 10 8 7 6 5 4 3 3 4 6 9 9 8 6 4 3 4
9 7 4 6 8 6 4 4 4 5 5 5 4 2 2 1 1 4 1 3 5 -1 -1 5 15 32 32 19 17 18 12 12 14 12 14 13 7 6 9 9 5 3 2 4 5 3 2 4 7 10 9 9 9 9 9 6 4 6 5 4 4 3 4 6 6 8 8 8 10 11 12 12 12 12 10 8 6 4 4 6 7 8 7 5 3 3
8 9 6 4 5 3 3 5 7 8 7 7 7 5 5 4 3 4 1 -0 3 1 -2 3 17 33 29 16 18 18 13 13 13 12 13 12 9 11 15 15 9 2 1 4 2 -3 -3 -1 3 8 9 8 7 9 11 8 4 4 4 4 4 2 4 6 7 9 10 9 10 12 12 12 13 14 14 14 11 8 6 5 5 7 7 6 6 4
7 8 8 5 4 3 5 8 8 7 7 7 7 6 5 6 6 7 4 2 3 0 -2 -3 -3 -1 2 6 14 15 13 14 13 12 13 12 11 10 11 16 15 6 2 5 4 -1 -3 -2 -0 4 8 8 7 9 11 11 8 5 4 4 4 3 4 5 7 9 9 8 10 11 11 10 9 11 13 15 15 13 10 7 5 6 5 6 6 5
7 8 9 8 6 4 5 6 3 3 5 5 5 5 3 3 4 6 7 6 4 1 -0 2 1 2 6 7 10 14 15 14 15 14 12 13 15 11 8 9 11 9 5 6 6 1 -0 2 3 6 8 6 4 6 9 11 10 8 5 4 4 4 4 5 7 9 9 8 8 8 8 9 10 12 13 15 16 17 15 12 8 6 6 6 5 4
7 6 7 7 7 5 4 4 2 2 3 3 3 4 3 3 3 3 5 4 4 5 4 3 5 14 22 15 8 14 15 13 16 15 11 12 14 14 13 8 5 6 6 9 12 9 9 9 3 2 7 9 6 7 9 10 10 11 8 4 5 5 5 6 8 10 9 6 6 6 6 8 10 13 14 15 16 17 17 17 14 10 8 6 6 6
5 5 4 4 5 4 2 0 -2 -1 1 2 3 3 2 3 3 2 3 3 2 4 6 5 3 8 15 12 7 12 14 12 13 14 12 11 11 13 14 10 8 7 4 9 17 17 16 12 1 -2 4 9 10 11 15 16 15 15 12 7 7 7 6 6 8 11 10 7 6 5 5 9 12 13 14 15 16 17 17 18 19 17 15 12 9 9
4 4 4 4 5 4 2 1 -0 -1 -0 0 2 4 3 3 3 3 3 2 2 4 3 0 2 7 8 6 4 7 11 12 11 12 14 12 10 11 11 8 9 7 1 6 14 13 10 4 -1 -1 0 6 12 10 13 20 21 19 16 11 9 9 8 6 8 11 11 7 5 4 5 9 11 9 10 12 15 19 20 20 20 20 20 20 20 20
4 3 4 5 5 5 5 5 6 4 2 1 2 3 3 3 4 3 2 1 2 6 3 -1 4 9 5 2 4 5 7 10 11 11 12 13 11 11 10 9 9 6 1 3 7 7 3 -2 -4 -5 -8 2 13 5 1 15 23 19 15 11 10 11 8 7 10 11 10 7 4 4 5 7 8 7 6 6 10 15 18 21 22 22 20 19 19 21
4 4 4 4 5 5 4 4 4 2 2 4 4 3 3 3 3 1 1 3 3 2 2 4 7 5 -3 -3 4 8 5 5 9 10 9 11 13 14 13 11 10 9 5 4 5 7 6 4 1 -3 -9 -1 12 5 -4 4 15 16 13 9 9 11 10 10 12 10 8 6 4 5 7 7 6 5 4 5 6 7 8 11 15 17 18 17 15 13
4 4 4 4 4 4 3 3 3 3 3 5 4 4 4 3 3 3 1 2 2 -0 2 6 6 3 2 3 5 9 10 7 6 7 7 8 11 14 15 14 13 11 9 8 8 6 7 7 6 2 -3 -2 9 11 3 0 4 9 11 10 9 11 12 11 10 9 7 5 5 8 9 7 4 3 3 4 4 2 2 3 4 8 12 14 17 18
5 4 4 4 4 3 3 2 4 5 5 6 5 4 4 3 2 4 3 1 2 1 2 6 5 3 5 7 5 5 7 7 5 5 7 7 9 13 15 14 16 16 14 14 10 6 9 9 5 4 1 -4 1 9 10 8 5 4 7 11 12 11 11 9 8 8 7 7 9 11 9 6 5 4 4 3 1 1 2 1 0 2 4 6 8 12
6 4 3 4 4 4 4 3 4 5 5 5 5 4 4 3 2 2 3 3 3 2 2 5 6 6 6 7 8 7 5 5 6 6 6 6 6 10 12 11 14 17 18 18 13 12 17 13 6 5 2 -5 -4 3 5 6 10 10 7 9 13 12 9 7 6 6 5 5 7 6 6 7 6 5 5 3 2 1 -0 -1 -1 -1 1 4 3 3
5 4 4 4 3 3 4 4 5 6 4 4 5 4 3 3 3 3 3 3 3 3 4 4 4 8 10 7 7 8 8 8 8 6 6 5 3 4 6 6 7 9 13 16 16 16 17 13 9 8 6 -0 -1 2 2 2 11 17 12 9 13 14 12 11 9 7 5 3 4 5 7 9 6 5 5 3 2 2 -0 0 1 -2 -2 -1 -0 2
4 4 4 4 4 4 4 4 4 5 5 5 4 3 4 4 4 5 4 4 5 4 4 4 2 5 10 10 7 7 8 9 9 8 7 6 3 1 1 3 4 3 5 10 14 16 14 12 11 7 6 8 6 5 5 3 6 13 14 13 14 13 12 11 8 7 6 4 6 8 7 6 5 5 5 5 4 3 1 2 2 -0 -2 -2 0 3
5 4 4 4 4 4 4 5 5 4 5 6 4 3 4 5 5 4 3 4 6 6 5 5 4 4 7 8 8 8 7 6 7 9 8 7 5 2 1 1 1 1 3 6 10 13 12 13 14 8 4 9 9 6 7 3 1 6 8 9 11 10 8 6 2 2 3 3 6 7 4 2 3 4 5 7 7 6 4 3 2 2 0 -2 -0 2
6 4 4 4 4 5 5 5 5 6 6 6 4 3 4 4 5 4 3 4 4 5 7 6 5 6 7 7 8 10 9 6 5 6 7 8 7 4 3 3 1 1 3 4 7 11 12 12 14 12 8 6 5 4 3 2 2 3 2 5 9 8 8 9 6 3 2 2 3 4 4 3 3 2 4 7 9 9 7 3 2 4 4 -0 -2 -1
6 6 5 4 4 5 4 4 5 6 5 4 3 3 4 4 5 4 3 4 3 3 4 5 5 6 6 6 7 9 10 7 4 4 5 6 8 7 5 4 2 3 5 5 6 9 12 11 12 15 13 8 6 4 0 0 3 2 0 5 9 6 5 5 3 3 6 6 4 3 3 4 3 1 2 4 6 7 8 8 6 5 5 5 1 -1
6 7 7 6 5 5 4 4 4 4 4 4 2 4 5 4 4 5 3 2 2 3 3 3 4 4 6 7 7 9 11 7 3 6 7 5 6 8 7 5 4 4 4 6 7 8 11 11 10 13 13 9 11 14 6 0 3 2 1 5 9 9 2 -3 2 10 11 12 16 12 4 1 2 2 2 4 6 7 8 10 9 7 5 6 5 4
5 5 7 7 6 5 4 4 3 4 6 4 2 4 6 4 4 5 4 3 2 3 5 5 3 3 5 7 7 9 9 5 5 10 12 8 6 6 6 5 4 4 4 5 8 8 10 10 8 10 10 4 8 17 13 4 4 7 5 4 7 8 5 7 17 15 5 9 22 20 10 6 4 2 2 5 7 7 7 6 7 7 5 3 4 5
5 4 4 4 3 4 4 3 3 5 5 3 3 4 5 6 6 5 4 4 4 4 5 6 5 4 4 6 8 9 8 6 8 12 10 9 9 9 9 8 6 6 6 7 11 11 9 9 8 9 8 2 1 9 12 9 8 11 8 2 1 3 4 10 11 1 -1 10 16 15 16 17 12 3 0 3 3 3 5 5 3 2 -0 1 5 6
7 5 4 3 2 3 3 3 3 5 4 3 3 4 4 6 7 6 6 6 5 5 6 6 6 6 7 6 7 7 7 8 12 12 8 8 10 8 8 10 11 10 9 9 12 13 8 7 8 8 8 5 1 1 4 3 5 10 10 6 4 4 6 9 4 -1 5 11 6 4 11 18 21 12 2 3 5 1 -0 0 -0 1 3 3 6 7
9 7 5 4 4 4 4 4 3 3 4 3 3 4 5 4 4 5 7 8 5 4 5 5 6 6 7 8 9 9 8 9 12 12 9 8 9 7 5 6 7 9 10 10 10 11 8 6 7 9 9 8 5 3 1 -2 -2 3 6 6 8 8 6 6 3 -1 1 2 1 5 7 14 25 21 6 8 13 9 5 3 3 7 9 6 6 7
18 12 8 6 4 3 3 3 3 3 4 3 3 4 4 4 8 7 4 4 5 5 5 4 6 7 7 6 8 10 10 10 12 11 10 8 7 6 6 5 5 6 8 9 8 8 7 5 7 10 10 8 7 5 4 2 -2 -1 1 1 1 2 2 5 5 1 3 7 7 7 8 13 18 13 5 7 9 8 8 6 3 6 8 6 6 6
29 21 15 9 5 5 5 4 4 5 4 1 3 6 4 5 8 5 1 3 5 3 4 3 2 6 8 8 9 9 8 10 12 12 11 10 8 8 6 5 6 7 8 9 8 6 4 4 6 9 11 11 9 5 6 7 4 2 1 -0 1 4 7 12 14 9 8 10 6 1 3 7 6 3 4 5 2 2 4 1 -0 2 2 3 5 5
37 31 24 15 8 7 6 3 3 2 1 1 2 3 4 6 5 2 2 6 5 0 2 5 2 2 6 7 9 10 9 9 11 12 12 11 9 9 9 7 6 6 7 9 9 8 8 8 9 10 10 10 10 7 6 7 8 7 8 8 11 14 13 13 12 7 3 3 2 -1 1 4 3 2 3 3 2 3 2 1 3 4 2 3 5 5
41 41 35 24 16 11 5 2 3 3 1 2 2 2 4 5 5 4 2 3 5 3 1 3 4 4 7 7 7 9 11 10 10 10 10 10 9 7 6 7 8 8 7 7 10 12 12 14 16 15 12 9 9 9 7 7 7 7 8 9 10 9 7 4 2 1 -1 -1 0 3 3 5 7 5 2 1 2 2 3 5 5 2 2 3 3 5
35 38 37 32 27 20 11 5 6 6 5 3 0 1 5 5 3 6 6 3 5 5 1 3 6 5 6 7 6 6 8 9 10 9 8 8 8 6 6 7 9 10 8 9 12 12 10 12 18 19 15 11 8 5 4 7 9 7 5 4 2 1 0 -0 -1 -1 0 -0 0 2 1 0 2 3 2 2 3 4 6 7 6 5 6 6 5 6
36 35 36 38 36 29 19 11 8 8 7 8 5 1 3 6 4 4 5 4 6 6 2 3 7 7 6 6 6 6 7 8 9 10 10 11 9 8 7 8 8 8 8 10 13 12 7 7 11 16 18 18 15 9 4 3 3 4 4 3 2 2 1 1 0 -2 -2 -2 -1 -0 2 3 5 7 7 7 7 7 6 6 8 9 7 5 6 5
32 32 31 34 39 40 28 17 16 15 8 10 14 6 1 6 7 5 5 3 3 8 8 4 6 10 9 4 3 5 7 9 10 9 8 9 10 9 8 8 8 7 8 8 8 7 6 6 6 8 10 14 17 18 15 10 4 2 2 0 1 2 0 -1 0 0 2 5 8 10 13 16 16 14 12 10 8 8 8 7 6 6 4 5 6 4
22 29 32 31 37 43 34 21 23 27 20 20 23 16 8 8 8 7 9 5 -1 3 7 6 8 14 14 8 4 3 4 4 7 10 10 9 10 11 10 10 9 8 7 7 5 4 7 9 6 2 1 3 7 11 15 19 18 14 11 8 6 5 5 6 9 13 16 16 16 16 15 12 10 7 5 5 5 4 4 3 3 4 5 6 6 5
17 27 30 27 29 36 37 31 28 25 21 23 29 28 19 13 10 10 10 9 8 8 7 7 10 15 17 13 7 4 6 5 3 4 7 8 10 12 11 10 10 9 7 6 4 5 9 9 6 4 4 5 6 6 6 11 17 18 18 18 16 14 13 12 12 13 13 11 9 8 6 4 4 3 3 5 6 5 5 7 8 8 8 8 10 10
24 31 29 28 32 35 36 33 30 23 14 11 21 32 27 17 14 15 13 11 13 15 15 15 13 12 17 20 12 4 3 4 4 4 4 5 7 9 10 10 10 10 9 7 6 7 9 7 3 5 11 13 11 8 5 4 6 9 10 10 10 10 9 8 8 6 4 4 4 4 4 4 4 5 7 9 11 12 12 13 15 16 14 14 14 11
Height
5852 5852 5855 5857 5859 5861 5863 5865 5866 5868 5870 5872 5873 5875 5877 5878 5880 5882 5882 5882 5882 5884 5886 5887 5889 5890 5890 5890 5890 5890 5891 5892 5892 5891 5892 5893 5894 5895 5897 5898 5899 5899 5899 5899 5899 5900 5901 5902 5904 5906 5907 5908 5909 5911 5912 5914 5915 5917 5919 5920 5922 5923 5925 5926 5927 5928 5928 5929 5929 5930 5931 5932 5933 5934 5934 5935 5936 5937 5937 5938 5939 5939 5940 5940 5940 5940
5849 5851 5854 5855 5857 5859 5860 5862 5863 5865 5867 5869 5870 5872 5874 5876 5878 5880 5880 5880 5880 5881 5884 5885 5886 5887 5887 5887 5888 5889 5890 5891 5891 5890 5889 5890 5891 5893 5895 5897 5898 5899 5899 5899 5899 5900 5901 5902 5904 5905 5907 5909 5910 5911 5912 5913 5915 5916 5918 5920 5921 5923 5924 5925 5926 5927 5928 5929 5930 5930 5931 5932 5933 5934 5934 5935 5936 5937 5937 5938 5938 5939 5940 5940 5940 5940
5848 5851 5852 5852 5853 5855 5856 5858 5859 5861 5863 5865 5867 5869 5871 5874 5876 5877 5878 5878 5878 5879 5881 5883 5883 5884 5885 5885 5887 5888 5888 5889 5890 5890 5889 5888 5888 5890 5892 5894 5896 5898 5898 5899 5899 5899 5900 5901 5903 5905 5907 5908 5909 5910 5911 5913 5914 5916 5918 5919 5921 5923 5924 5925 5926 5927 5928 5929 5930 5930 5931 5932 5933 5934 5934 5935 5936 5936 5937 5938 5938 5939 5939 5940 5940 5940
5847 5849 5849 5849 5850 5851 5852 5854 5856 5857 5859 5861 5864 5866 5870 5873 5873 5874 5875 5875 5875 5876 5878 5879 5880 5881 5882 5884 5885 5886 5886 5887 5888 5889 5889 5889 5887 5887 5889 5891 5894 5896 5898 5898 5898 5899 5900 5901 5902 5904 5906 5907 5909 5910 5911 5913 5914 5916 5917 5919 5921 5922 5923 5924 5925 5926 5927 5928 5929 5930 5931 5932 5933 5933 5934 5934 5935 5936 5937 5937 5938 5939 5939 5939 5939 5939
5844 5845 5845 5846 5847 5848 5849 5850 5852 5853 5855 5858 5861 5864 5868 5869 5870 5871 5872 5873 5873 5873 5875 5877 5877 5878 5880 5882 5884 5883 5883 5884 5886 5887 5889 5890 5889 5887 5887 5889 5892 5895 5896 5897 5898 5898 5899 5900 5902 5903 5905 5907 5908 5910 5911 5912 5914 5915 5916 5918 5919 5921 5922 5923 5925 5926 5927 5928 5929 5930 5931 5932 5932 5932 5933 5934 5935 5935 5936 5937 5937 5938 5938 5939 5939 5939
5841 5842 5843 5844 5844 5845 5846 5847 5849 5851 5853 5856 5859 5862 5865 5865 5866 5868 5869 5871 5870 5870 5872 5874 5873 5875 5878 5880 5881 5880 5880 5882 5884 5885 5887 5888 5888 5888 5887 5887 5889 5893 5895 5896 5897 5898 5899 5900 5901 5903 5905 5906 5908 5909 5910 5911 5912 5914 5915 5917 5918 5920 5921 5923 5924 5925 5927 5928 5929 5930 5930 5931 5932 5932 5933 5933 5934 5934 5935 5936 5937 5937 5938 5938 5938 5938
5838 5839 5840 5841 5842 5843 5844 5846 5848 5849 5850 5852 5856 5859 5860 5860 5862 5864 5866 5867 5866 5866 5869 5870 5869 5872 5874 5876 5877 5877 5878 5880 5881 5883 5885 5886 5887 5888 5888 5887 5887 5890 5893 5895 5896 5897 5898 5899 5900 5902 5904 5905 5907 5908 5909 5910 5911 5913 5914 5916 5918 5919 5920 5922 5923 5925 5926 5927 5928 5929 5929 5930 5931 5932 5932 5933 5933 5934 5935 5935 5936 5936 5937 5937 5937 5938
5836 5836 5837 5839 5839 5840 5842 5845 5846 5847 5848 5850 5853 5855 5855 5857 5859 5861 5862 5862 5862 5863 5865 5866 5866 5867 5869 5872 5874 5875 5876 5877 5879 5881 5883 5885 5886 5887 5887 5887 5887 5888 5891 5893 5895 5896 5897 5898 5899 5901 5902 5904 5905 5906 5908 5909 5910 5912 5913 5915 5916 5918 5919 5921 5922 5924 5925 5926 5927 5928 5929 5930 5931 5931 5932 5933 5933 5934 5934 5935 5935 5936 5936 5937 5937 5937
5833 5832 5834 5835 5835 5837 5840 5843 5843 5844 5845 5847 5850 5851 5852 5853 5854 5856 5857 5858 5859 5859 5859 5862 5863 5863 5865 5870 5871 5872 5873 5875 5877 5880 5882 5884 5885 5885 5886 5887 5886 5886 5888 5891 5893 5895 5896 5897 5898 5899 5901 5902 5904 5905 5907 5908 5909 5910 5911 5913 5915 5916 5918 5920 5921 5923 5924 5925 5926 5927 5928 5929 5929 5930 5932 5932 5933 5933 5933 5934 5935 5935 5936 5936 5936 5937
5827 5827 5828 5828 5830 5833 5836 5838 5838 5841 5842 5843 5846 5847 5848 5848 5850 5851 5852 5854 5855 5852 5853 5860 5862 5860 5862 5866 5867 5867 5871 5874 5877 5879 5881 5883 5884 5884 5885 5885 5886 5886 5886 5888 5891 5893 5894 5896 5897 5898 5900 5901 5903 5905 5906 5907 5908 5909 5910 5912 5913 5915 5916 5918 5920 5921 5922 5923 5924 5926 5927 5927 5928 5929 5930 5931 5932 5932 5932 5933 5933 5934 5934 5935 5935 5936
5822 5823 5822 5823 5828 5831 5832 5833 5835 5837 5837 5838 5840 5842 5842 5843 5845 5846 5847 5850 5850 5845 5849 5858 5860 5858 5859 5861 5862 5865 5870 5875 5876 5877 5879 5881 5882 5883 5884 5884 5885 5886 5885 5886 5888 5891 5892 5894 5895 5897 5899 5900 5902 5904 5905 5906 5907 5908 5909 5910 5912 5913 5915 5916 5918 5919 5920 5921 5922 5924 5924 5925 5926 5927 5929 5930 5930 5931 5931 5931 5932 5932 5933 5934 5934 5935
5818 5818 5818 5822 5827 5828 5829 5830 5832 5833 5833 5834 5837 5838 5838 5839 5840 5841 5842 5845 5844 5841 5847 5855 5857 5855 5855 5858 5860 5863 5869 5872 5873 5875 5877 5879 5881 5882 5883 5883 5884 5885 5885 5885 5886 5888 5890 5892 5894 5896 5898 5899 5901 5902 5903 5904 5906 5907 5908 5909 5910 5911 5913 5915 5916 5917 5918 5919 5920 5921 5922 5923 5924 5926 5927 5928 5929 5929 5930 5930 5931 5931 5932 5933 5933 5933
5815 5815 5817 5820 5823 5824 5825 5827 5829 5829 5830 5832 5835 5834 5833 5834 5836 5836 5838 5840 5841 5841 5845 5850 5854 5853 5853 5857 5860 5863 5867 5869 5871 5873 5875 5877 5879 5880 5881 5882 5883 5883 5884 5884 5885 5886 5888 5891 5893 5895 5896 5897 5899 5900 5901 5903 5904 5905 5906 5907 5908 5910 5911 5913 5914 5915 5916 5917 5918 5919 5920 5921 5922 5924 5925 5927 5927 5928 5928 5929 5929 5930 5930 5931 5931 5932
5810 5811 5812 5814 5817 5820 5822 5824 5826 5827 5828 5831 5833 5832 5831 5832 5833 5834 5836 5838 5841 5841 5841 5846 5852 5849 5850 5856 5859 5861 5864 5866 5869 5871 5873 5875 5876 5878 5880 5880 5881 5881 5882 5883 5884 5884 5886 5888 5891 5892 5894 5895 5897 5898 5899 5901 5902 5903 5905 5906 5907 5908 5909 5911 5912 5913 5914 5915 5916 5917 5918 5919 5920 5922 5923 5924 5925 5926 5926 5927 5928 5928 5929 5929 5930 5930
5804 5805 5808 5812 5816 5818 5820 5822 5825 5825 5826 5827 5829 5829 5829 5830 5832 5833 5836 5837 5840 5839 5836 5842 5847 5846 5849 5856 5858 5860 5863 5864 5867 5869 5871 5873 5874 5876 5878 5878 5879 5880 5881 5882 5882 5883 5884 5886 5888 5890 5891 5893 5895 5896 5897 5899 5900 5901 5903 5904 5906 5907 5908 5909 5910 5911 5912 5913 5914 5915 5916 5917 5918 5920 5921 5922 5923 5924 5924 5925 5926 5927 5927 5928 5928 5929
5799 5800 5806 5809 5811 5813 5815 5818 5819 5819 5820 5821 5823 5824 5825 5828 5831 5832 5834 5835 5838 5837 5833 5837 5842 5844 5849 5854 5856 5859 5862 5863 5865 5867 5869 5871 5872 5874 5875 5876 5878 5878 5880 5881 5882 5883 5884 5884 5885 5887 5889 5891 5893 5894 5896 5897 5898 5900 5901 5903 5904 5905 5907 5908 5909 5910 5911 5911 5912 5913 5914 5915 5916 5918 5919 5920 5921 5922 5922 5923 5924 5925 5925 5926 5927 5928
5794 5797 5802 5803 5804 5808 5809 5812 5813 5814 5816 5817 5818 5821 5824 5827 5829 5829 5830 5832 5834 5833 5831 5835 5839 5843 5847 5848 5851 5856 5859 5861 5863 5864 5867 5869 5871 5872 5873 5875 5876 5878 5879 5880 5881 5883 5883 5883 5884 5885 5887 5889 5891 5892 5894 5896 5897 5898 5899 5901 5902 5903 5905 5906 5907 5908 5909 5910 5911 5912 5912 5913 5915 5916 5916 5917 5918 5919 5920 5921 5922 5923 5923 5924 5925 5926
5788 5793 5796 5797 5800 5805 5805 5806 5807 5808 5809 5811 5815 5820 5821 5822 5823 5824 5825 5828 5829 5829 5830 5833 5836 5840 5842 5843 5848 5853 5856 5859 5861 5863 5865 5866 5868 5870 5872 5874 5875 5877 5878 5879 5881 5882 5882 5883 5883 5884 5885 5886 5888 5890 5892 5894 5895 5896 5897 5898 5900 5901 5902 5904 5905 5906 5907 5908 5909 5910 5911 5912 5913 5913 5914 5915 5915 5916 5917 5919 5920 5920 5921 5922 5923 5924
5783 5787 5790 5791 5795 5799 5799 5799 5799 5800 5803 5807 5813 5815 5813 5814 5818 5819 5820 5823 5826 5827 5829 5832 5834 5836 5838 5841 5846 5850 5853 5856 5859 5861 5863 5864 5867 5868 5870 5873 5874 5875 5877 5878 5880 5881 5882 5883 5883 5884 5885 5885 5887 5888 5890 5891 5892 5893 5895 5896 5897 5898 5900 5901 5902 5904 5905 5906 5907 5908 5909 5910 5910 5911 5912 5912 5913 5914 5915 5916 5917 5918 5919 5919 5921 5922
5778 5782 5785 5787 5791 5793 5792 5791 5792 5795 5800 5805 5808 5808 5807 5810 5814 5815 5817 5820 5824 5825 5828 5830 5832 5833 5836 5839 5843 5845 5848 5851 5854 5857 5860 5862 5865 5867 5869 5871 5872 5874 5875 5877 5879 5880 5881 5882 5883 5883 5884 5885 5885 5886 5887 5888 5889 5891 5892 5893 5895 5896 5897 5899 5900 5902 5903 5904 5905 5906 5907 5907 5908 5909 5910 5910 5911 5912 5913 5913 5914 5915 5916 5917 5918 5919
5773 5776 5780 5783 5786 5786 5785 5786 5789 5794 5798 5801 5803 5804 5805 5808 5810 5811 5814 5817 5820 5822 5825 5828 5830 5831 5833 5836 5839 5841 5844 5847 5849 5853 5856 5859 5861 5864 5866 5868 5870 5871 5873 5875 5877 5878 5879 5880 5881 5882 5882 5883 5883 5883 5884 5885 5886 5888 5889 5890 5892 5893 5895 5897 5898 5900 5901 5902 5902 5903 5904 5905 5906 5906 5907 5908 5908 5909 5910 5911 5912 5913 5913 5915 5916 5917
5766 5769 5774 5778 5779 5779 5780 5784 5789 5792 5795 5798 5800 5802 5804 5805 5807 5809 5811 5815 5818 5820 5823 5826 5828 5830 5832 5834 5836 5838 5840 5842 5845 5848 5851 5854 5857 5859 5862 5864 5866 5869 5871 5873 5874 5875 5876 5878 5878 5879 5879 5880 5880 5880 5881 5882 5883 5884 5886 5888 5889 5891 5892 5894 5896 5897 5898 5899 5900 5901 5902 5902 5903 5904 5904 5905 5906 5907 5907 5908 5909 5910 5911 5912 5913 5914
5759 5763 5767 5772 5773 5774 5776 5781 5785 5788 5790 5793 5794 5796 5798 5798 5800 5804 5809 5814 5816 5816 5820 5823 5825 5828 5831 5832 5833 5835 5837 5839 5841 5844 5847 5849 5852 5855 5858 5860 5862 5865 5867 5868 5870 5872 5874 5875 5875 5876 5876 5876 5877 5877 5878 5879 5881 5882 5883 5885 5886 5888 5890 5892 5893 5895 5895 5896 5898 5899 5899 5900 5901 5902 5902 5903 5903 5904 5904 5905 5906 5906 5908 5909 5910 5912
5753 5756 5761 5766 5769 5770 5772 5777 5780 5783 5785 5786 5787 5790 5791 5792 5796 5801 5807 5810 5810 5811 5816 5819 5821 5825 5828 5829 5831 5833 5835 5837 5838 5841 5843 5846 5849 5851 5854 5856 5858 5861 5863 5864 5866 5868 5870 5872 5872 5873 5874 5874 5875 5875 5876 5877 5878 5879 5881 5882 5884 5886 5888 5889 5891 5892 5893 5894 5895 5896 5897 5898 5899 5899 5900 5900 5901 5901 5901 5902 5902 5903 5905 5906 5907 5909
5744 5748 5753 5759 5762 5763 5765 5769 5772 5775 5777 5778 5781 5785 5787 5790 5795 5798 5801 5802 5802 5806 5812 5815 5818 5824 5826 5826 5828 5830 5832 5834 5836 5838 5840 5843 5846 5848 5851 5853 5855 5857 5860 5861 5863 5865 5866 5868 5870 5871 5872 5872 5873 5874 5874 5875 5876 5877 5878 5879 5881 5884 5885 5886 5888 5889 5891 5892 5893 5894 5895 5896 5897 5897 5898 5898 5898 5898 5899 5899 5900 5901 5902 5903 5904 5906
5737 5740 5745 5750 5754 5755 5758 5760 5764 5768 5770 5772 5777 5781 5784 5787 5790 5793 5796 5796 5798 5804 5809 5810 5816 5822 5824 5825 5826 5827 5829 5831 5833 5835 5837 5839 5842 5844 5847 5849 5851 5854 5856 5857 5859 5860 5862 5865 5867 5868 5870 5870 5871 5872 5873 5873 5874 5875 5876 5877 5879 5880 5881 5883 5885 5887 5888 5889 5891 5892 5893 5894 5895 5895 5896 5896 5896 5897 5897 5897 5898 5898 5899 5900 5901 5903
5729 5733 5737 5743 5748 5750 5754 5758 5762 5765 5767 5768 5773 5777 5780 5783 5786 5789 5790 5789 5795 5802 5804 5808 5815 5820 5822 5824 5824 5826 5827 5829 5831 5833 5835 5837 5838 5840 5842 5844 5847 5849 5851 5853 5855 5857 5859 5862 5864 5866 5867 5868 5868 5870 5871 5871 5872 5873 5874 5875 5877 5877 5878 5880 5881 5884 5885 5887 5888 5890 5891 5892 5893 5893 5894 5894 5895 5895 5895 5895 5896 5896 5897 5898 5899 5900
5721 5725 5729 5735 5741 5745 5749 5754 5757 5760 5762 5764 5768 5773 5776 5780 5782 5784 5783 5785 5793 5797 5800 5808 5813 5815 5819 5822 5822 5824 5826 5827 5829 5830 5832 5834 5836 5837 5839 5841 5843 5845 5847 5849 5851 5853 5856 5859 5861 5863 5865 5865 5866 5867 5869 5869 5870 5871 5871 5873 5874 5875 5876 5877 5879 5881 5883 5884 5886 5888 5889 5890 5890 5891 5891 5892 5893 5893 5894 5894 5894 5895 5895 5896 5897 5897
5713 5717 5722 5728 5733 5738 5743 5747 5751 5754 5757 5759 5762 5767 5772 5775 5777 5778 5779 5784 5789 5791 5797 5807 5809 5809 5815 5820 5821 5823 5824 5824 5826 5827 5829 5831 5833 5834 5836 5837 5839 5840 5843 5845 5847 5849 5852 5855 5858 5860 5862 5863 5863 5864 5866 5867 5868 5869 5869 5871 5871 5873 5874 5875 5876 5878 5880 5882 5884 5886 5886 5887 5887 5888 5889 5890 5891 5891 5892 5892 5892 5893 5893 5894 5894 5895
5705 5710 5715 5720 5726 5731 5736 5740 5745 5748 5751 5754 5757 5762 5767 5770 5772 5774 5776 5781 5784 5786 5795 5803 5802 5804 5812 5816 5819 5821 5821 5822 5823 5824 5827 5828 5829 5831 5832 5833 5835 5837 5839 5842 5844 5846 5848 5851 5854 5856 5858 5859 5861 5862 5863 5865 5866 5867 5868 5869 5870 5871 5872 5873 5874 5876 5878 5880 5882 5883 5883 5884 5885 5886 5886 5887 5888 5889 5889 5890 5890 5891 5892 5892 5892 5893
5697 5702 5707 5713 5718 5724 5729 5733 5738 5742 5745 5748 5751 5756 5761 5765 5767 5769 5772 5777 5779 5782 5791 5796 5796 5801 5810 5813 5816 5818 5818 5819 5821 5822 5824 5825 5826 5827 5829 5830 5832 5834 5836 5838 5841 5843 5845 5847 5850 5852 5854 5856 5858 5859 5861 5862 5863 5864 5865 5866 5867 5868 5870 5870 5872 5874 5875 5877 5879 5879 5880 5881 5882 5883 5884 5885 5886 5886 5887 5887 5888 5888 5889 5890 5890 5890
5689 5694 5700 5705 5710 5717 5721 5725 5731 5735 5738 5742 5746 5751 5756 5760 5763 5765 5768 5772 5775 5779 5787 5790 5790 5798 5808 5811 5813 5814 5814 5816 5818 5819 5821 5822 5823 5825 5826 5828 5829 5831 5833 5834 5836 5839 5841 5844 5846 5849 5851 5853 5855 5857 5858 5859 5861 5862 5863 5864 5865 5866 5867 5868 5869 5871 5873 5874 5875 5876 5877 5878 5879 5880 5881 5882 5883 5884 5884 5884 5885 5886 5887 5887 5888 5888
5681 5686 5692 5697 5702 5709 5714 5718 5723 5728 5732 5735 5741 5747 5751 5755 5758 5760 5762 5767 5771 5775 5780 5782 5786 5796 5806 5807 5807 5808 5810 5811 5814 5816 5818 5819 5820 5821 5824 5826 5827 5828 5830 5831 5833 5835 5838 5840 5843 5845 5848 5850 5852 5854 5855 5856 5858 5859 5860 5862 5862 5863 5863 5865 5866 5868 5870 5871 5872 5873 5874 5875 5876 5877 5878 5880 5880 5881 5881 5881 5882 5883 5884 5885 5885 5885
5672 5678 5684 5689 5694 5701 5707 5711 5715 5719 5724 5728 5736 5743 5746 5748 5751 5755 5758 5762 5767 5770 5774 5777 5783 5793 5799 5800 5802 5805 5806 5807 5809 5811 5812 5814 5816 5818 5821 5824 5825 5826 5827 5828 5829 5832 5834 5836 5839 5841 5844 5846 5849 5851 5852 5853 5855 5856 5857 5858 5858 5859 5860 5862 5863 5865 5867 5868 5869 5871 5871 5872 5873 5874 5875 5876 5877 5877 5878 5878 5880 5880 5881 5881 5882 5882
5663 5669 5675 5681 5686 5693 5700 5703 5705 5710 5716 5724 5732 5737 5739 5741 5745 5750 5754 5758 5762 5765 5768 5773 5779 5787 5793 5795 5797 5801 5803 5803 5803 5805 5807 5810 5812 5814 5817 5819 5821 5823 5824 5825 5827 5828 5830 5833 5835 5838 5840 5843 5845 5847 5848 5850 5852 5853 5853 5854 5855 5857 5858 5859 5860 5862 5863 5865 5866 5867 5868 5869 5870 5871 5872 5873 5873 5874 5874 5875 5876 5877 5878 5878 5878 5879
5656 5661 5667 5673 5678 5684 5690 5694 5697 5703 5711 5720 5726 5728 5731 5736 5741 5744 5748 5753 5757 5759 5763 5768 5773 5781 5787 5790 5792 5796 5798 5799 5799 5801 5803 5806 5808 5810 5812 5815 5818 5820 5821 5823 5825 5826 5828 5830 5832 5834 5836 5838 5841 5843 5846 5848 5849 5849 5850 5852 5853 5854 5855 5856 5857 5858 5860 5861 5862 5864 5865 5866 5866 5867 5868 5869 5869 5870 5870 5871 5872 5873 5874 5875 5875 5875
5647 5652 5658 5664 5670 5676 5681 5687 5693 5699 5704 5712 5717 5720 5726 5732 5735 5739 5743 5747 5752 5755 5759 5764 5769 5775 5782 5786 5788 5792 5793 5794 5795 5798 5800 5802 5805 5807 5809 5811 5813 5816 5818 5821 5823 5824 5825 5826 5828 5830 5832 5834 5837 5839 5842 5844 5845 5846 5847 5849 5850 5851 5852 5853 5855 5856 5857 5858 5859 5861 5861 5861 5861 5863 5864 5864 5865 5866 5866 5867 5868 5869 5870 5871 5871 5871
5639 5644 5650 5656 5662 5668 5673 5679 5686 5691 5696 5704 5709 5713 5721 5727 5729 5734 5738 5742 5747 5751 5754 5759 5765 5770 5775 5780 5783 5786 5787 5788 5791 5795 5798 5799 5801 5803 5805 5807 5809 5812 5815 5817 5820 5822 5822 5823 5825 5827 5829 5831 5833 5835 5838 5840 5842 5843 5844 5846 5847 5848 5850 5851 5852 5853 5855 5856 5857 5856 5855 5856 5857 5859 5860 5860 5861 5862 5862 5863 5863 5864 5864 5865 5866 5867
5631 5637 5642 5646 5652 5660 5665 5671 5678 5683 5689 5697 5702 5707 5714 5719 5724 5729 5732 5736 5743 5748 5749 5754 5760 5764 5769 5773 5777 5781 5782 5783 5787 5792 5795 5796 5798 5800 5802 5804 5806 5808 5810 5813 5816 5818 5820 5820 5822 5823 5825 5827 5829 5831 5834 5836 5838 5839 5840 5842 5844 5845 5847 5849 5850 5850 5851 5852 5852 5850 5850 5852 5853 5854 5855 5856 5857 5858 5858 5859 5859 5859 5859 5860 5861 5862
5624 5630 5634 5638 5645 5653 5657 5662 5670 5675 5681 5690 5697 5701 5707 5711 5718 5724 5726 5730 5738 5744 5746 5750 5755 5759 5764 5767 5771 5776 5777 5779 5784 5788 5790 5792 5794 5796 5798 5800 5802 5804 5806 5808 5811 5814 5816 5817 5818 5820 5821 5823 5825 5827 5830 5832 5834 5835 5837 5838 5840 5842 5844 5845 5845 5845 5846 5846 5846 5847 5848 5849 5849 5850 5852 5852 5852 5853 5854 5854 5855 5855 5855 5856 5857 5857
5617 5622 5627 5632 5639 5645 5649 5654 5661 5667 5675 5685 5692 5696 5700 5704 5710 5716 5720 5725 5734 5740 5744 5747 5751 5755 5759 5761 5765 5770 5773 5776 5780 5783 5785 5787 5790 5792 5793 5796 5798 5800 5802 5804 5806 5809 5811 5813 5814 5816 5818 5819 5821 5823 5825 5828 5830 5832 5833 5834 5836 5837 5839 5839 5840 5841 5842 5842 5843 5844 5844 5845 5846 5847 5848 5848 5848 5848 5849 5850 5850 5850 5850 5851 5851 5851
5610 5615 5620 5626 5632 5638 5642 5647 5652 5658 5668 5680 5688 5690 5693 5697 5702 5709 5715 5721 5729 5735 5739 5743 5747 5750 5753 5756 5760 5764 5768 5771 5775 5778 5780 5782 5784 5787 5789 5792 5794 5796 5798 5799 5801 5803 5806 5808 5810 5812 5814 5815 5817 5819 5821 5823 5826 5828 5829 5830 5832 5833 5834 5835 5836 5837 5838 5838 5839 5840 5840 5841 5842 5843 5844 5844 5844 5844 5844 5845 5845 5845 5845 5845 5845 5845
5602 5608 5613 5620 5626 5631 5634 5637 5642 5650 5663 5676 5683 5685 5687 5691 5696 5703 5708 5714 5723 5729 5733 5738 5743 5746 5749 5752 5754 5758 5763 5766 5770 5772 5774 5776 5779 5782 5785 5787 5790 5792 5794 5795 5797 5799 5801 5803 5805 5807 5810 5812 5813 5815 5817 5819 5821 5823 5825 5826 5827 5828 5829 5831 5831 5832 5833 5834 5835 5836 5836 5836 5837 5838 5838 5839 5839 5839 5840 5839 5839 5839 5839 5840 5840 5840
5596 5602 5608 5614 5619 5622 5624 5628 5636 5646 5657 5667 5675 5679 5682 5687 5692 5697 5701 5707 5715 5722 5727 5733 5739 5743 5746 5748 5750 5753 5757 5761 5764 5767 5769 5772 5774 5776 5779 5782 5785 5787 5789 5791 5793 5794 5796 5798 5800 5802 5804 5807 5809 5810 5812 5814 5816 5817 5819 5820 5822 5823 5824 5825 5825 5827 5828 5829 5830 5830 5831 5831 5831 5832 5833 5834 5834 5834 5835 5834 5833 5833 5833 5833 5833 5833
5591 5596 5601 5605 5609 5611 5616 5624 5633 5641 5649 5659 5667 5673 5677 5682 5686 5690 5694 5700 5707 5714 5722 5728 5734 5739 5742 5744 5745 5748 5752 5755 5759 5762 5764 5767 5769 5771 5774 5777 5779 5782 5784 5786 5788 5790 5791 5793 5795 5797 5799 5801 5803 5805 5807 5808 5810 5811 5813 5814 5815 5816 5818 5819 5820 5821 5822 5823 5824 5825 5825 5826 5827 5827 5827 5828 5828 5828 5828 5828 5828 5827 5826 5826 5826 5825
5585 5588 5592 5596 5601 5605 5613 5622 5630 5636 5643 5650 5658 5665 5671 5676 5681 5684 5688 5694 5700 5707 5714 5722 5729 5734 5737 5739 5742 5744 5747 5750 5753 5756 5759 5762 5764 5767 5769 5772 5774 5776 5778 5781 5783 5785 5786 5788 5790 5792 5794 5796 5798 5800 5802 5803 5805 5806 5807 5808 5810 5811 5812 5813 5814 5816 5817 5817 5818 5819 5819 5820 5821 5821 5821 5821 5821 5821 5821 5821 5821 5821 5820 5819 5818 5818
5579 5581 5584 5589 5595 5600 5609 5619 5625 5630 5636 5641 5649 5659 5666 5670 5675 5678 5682 5688 5694 5700 5706 5714 5722 5729 5732 5735 5738 5740 5742 5746 5748 5751 5754 5756 5759 5762 5764 5766 5769 5771 5773 5776 5778 5780 5782 5784 5785 5787 5789 5791 5793 5795 5796 5798 5799 5801 5802 5804 5805 5806 5807 5808 5809 5810 5811 5812 5812 5813 5813 5814 5814 5814 5815 5815 5814 5814 5814 5814 5814 5813 5813 5812 5811 5811
5573 5575 5579 5585 5590 5594 5604 5615 5619 5623 5630 5636 5643 5652 5660 5664 5669 5673 5677 5682 5689 5694 5699 5706 5714 5722 5727 5730 5733 5735 5738 5740 5743 5746 5749 5751 5754 5756 5759 5761 5764 5765 5768 5770 5772 5775 5777 5779 5781 5783 5784 5786 5788 5790 5791 5793 5794 5796 5797 5799 5800 5801 5802 5803 5803 5804 5805 5806 5806 5807 5807 5807 5807 5808 5808 5808 5808 5807 5807 5807 5806 5805 5805 5805 5804 5803
5567 5571 5576 5580 5583 5588 5600 5610 5614 5618 5625 5631 5637 5646 5653 5659 5665 5669 5673 5678 5684 5689 5694 5699 5707 5715 5720 5724 5727 5730 5733 5735 5738 5741 5744 5746 5749 5751 5753 5756 5758 5760 5763 5765 5767 5770 5772 5774 5777 5779 5780 5782 5784 5785 5786 5788 5789 5790 5791 5793 5794 5795 5796 5796 5797 5797 5798 5799 5799 5800 5800 5801 5801 5801 5801 5801 5801 5800 5800 5799 5799 5798 5797 5797 5797 5796
5563 5568 5571 5571 5575 5586 5599 5606 5608 5612 5621 5628 5634 5640 5647 5654 5660 5665 5669 5674 5679 5684 5690 5695 5700 5707 5714 5718 5722 5725 5728 5731 5733 5735 5738 5741 5744 5746 5748 5751 5753 5755 5757 5760 5762 5764 5767 5769 5772 5774 5776 5778 5779 5780 5781 5782 5783 5785 5786 5787 5788 5789 5789 5790 5790 5791 5792 5792 5793 5793 5794 5794 5794 5794 5794 5794 5794 5793 5793 5792 5791 5790 5789 5789 5789 5787
5561 5563 5563 5565 5574 5587 5596 5598 5600 5607 5615 5623 5630 5636 5642 5650 5657 5661 5665 5669 5675 5681 5687 5691 5695 5700 5707 5712 5716 5720 5723 5726 5729 5731 5733 5735 5738 5741 5743 5745 5747 5750 5752 5754 5757 5759 5761 5764 5767 5769 5771 5772 5773 5775 5776 5777 5778 5779 5780 5781 5782 5783 5784 5784 5785 5785 5786 5786 5786 5787 5787 5787 5787 5787 5787 5786 5786 5786 5785 5785 5784 5783 5781 5781 5780 5779